Pensacola NAS, FL

5:21 PM CDT on August 17, 2017 (GMT -0500)
Pensacola Naval Air Station

Weather History for KNPA - April, 2013

Change the Weather History Date:

Friday, April 5, 2013

  Actual Average Record
Temperature  
Mean Temperature 57 °F -  
Max Temperature 66 °F 71 °F 80 °F (2017)
Min Temperature 50 °F 55 °F 43 °F (2004)
Degree Days  
Heating Degree Days 8    
Growing Degree Days 7 (Base 50)    
Moisture  
Dew Point 48 °F    
Average Humidity 73    
Maximum Humidity 89    
Minimum Humidity 50    
Precipitation  
Precipitation 0.00 in - - ()
Sea Level Pressure  
Sea Level Pressure 30.02 in    
Wind  
Wind Speed 10 mph (NNW)    
Max Wind Speed 16 mph    
Max Gust Speed 23 mph    
Visibility 10 miles    
Events Rain    
Averages and records for this station are not official NWS values.
T = Trace of Precipitation, MM = Missing Value Source: NWS Daily Summary

Daily Weather History Graph

Daily Weather History Graph

Search for Another Location

Airport or City:

Trip Planner

Search our weather history database for the weather conditions in past years. The results will help you decide how hot, cold, wet, or windy it might be!

Date:

Astronomy

Apr. 05, 2013 Rise Set
Actual Time 6:33 AM CDT 7:10 PM CDT
Civil Twilight 6:09 AM CDT 7:35 PM CDT
Nautical Twilight 5:40 AM CDT 8:03 PM CDT
Astronomical Twilight 5:11 AM CDT 8:32 PM CDT
Moon 3:20 AM CDT (4/5) 2:52 PM CDT (4/5)
Length of Visible Light 13h 26m
Length of Day
12h 37m
Waning Crescent, 23% of the Moon is Illuminated
Apr 5
Waning Crescent
Apr 10
New
Apr 18
First Quarter
Apr 25
Full
May 2
Last Quarter

Hourly Weather History & Observations

Time (CDT) Temp. Dew Point Humidity Pressure Visibility Wind Dir Wind Speed Gust Speed Precip Events Conditions
12:56 AM 57.9 °F 53.1 °F 84% 29.93 in 10.0 mi NW 9.2 mph - N/A   Overcast
1:56 AM 55.9 °F 52.0 °F 87% 29.93 in 10.0 mi NW 9.2 mph 18.4 mph N/A   Overcast
2:56 AM 55.9 °F 51.1 °F 84% 29.93 in 10.0 mi NW 10.4 mph 16.1 mph N/A   Overcast
3:56 AM 54.0 °F 50.0 °F 86% 29.94 in 10.0 mi NNW 12.7 mph 18.4 mph 0.00 in Rain Light Rain
4:56 AM 54.0 °F 50.0 °F 86% 29.95 in 10.0 mi NNW 10.4 mph 18.4 mph N/A   Overcast
5:56 AM 53.1 °F 48.9 °F 86% 29.97 in 10.0 mi NNW 13.8 mph 23.0 mph N/A   Overcast
6:56 AM 52.0 °F 48.9 °F 89% 29.99 in 10.0 mi NNW 11.5 mph - N/A   Overcast
7:56 AM 52.0 °F 48.0 °F 86% 30.01 in 10.0 mi NNW 12.7 mph 20.7 mph N/A   Overcast
8:56 AM 54.0 °F 48.9 °F 83% 30.04 in 10.0 mi NNW 10.4 mph - N/A   Overcast
9:34 AM 55.4 °F 48.2 °F 77% 30.04 in 10.0 mi North 11.5 mph 21.9 mph N/A   Overcast
9:56 AM 55.0 °F 48.0 °F 77% 30.06 in 10.0 mi NNW 10.4 mph - N/A   Overcast
10:56 AM 57.0 °F 46.9 °F 69% 30.07 in 10.0 mi North 15.0 mph - N/A   Overcast
11:56 AM 59.0 °F 48.0 °F 67% 30.06 in 10.0 mi NNW 10.4 mph - N/A   Overcast
12:56 PM 61.0 °F 48.0 °F 62% 30.05 in 10.0 mi NNW 13.8 mph 19.6 mph N/A   Mostly Cloudy
1:56 PM 60.1 °F 46.9 °F 62% 30.05 in 10.0 mi NNE 16.1 mph 21.9 mph N/A   Overcast
2:56 PM 61.0 °F 46.9 °F 60% 30.04 in 10.0 mi NNW 11.5 mph 18.4 mph N/A   Mostly Cloudy
3:06 PM 62.6 °F 46.4 °F 55% 30.03 in 10.0 mi North 15.0 mph 20.7 mph N/A   Mostly Cloudy
3:56 PM 64.0 °F 46.9 °F 54% 30.02 in 10.0 mi North 12.7 mph 18.4 mph N/A   Scattered Clouds
4:56 PM 64.9 °F 46.0 °F 50% 30.01 in 10.0 mi North 9.2 mph 17.3 mph N/A   Partly Cloudy
5:56 PM 64.9 °F 46.0 °F 50% 30.02 in 10.0 mi North 10.4 mph - N/A   Partly Cloudy
6:56 PM 63.0 °F 46.0 °F 54% 30.04 in 10.0 mi North 6.9 mph - N/A   Clear
7:56 PM 59.0 °F 46.9 °F 64% 30.07 in 10.0 mi North 5.8 mph - N/A   Clear
8:56 PM 57.0 °F 46.0 °F 67% 30.09 in 10.0 mi NNW 4.6 mph - N/A   Clear
9:56 PM 54.0 °F 46.0 °F 75% 30.10 in 10.0 mi NNW 4.6 mph - N/A   Clear
10:56 PM 50.0 °F 46.0 °F 86% 30.10 in 10.0 mi NNW 3.5 mph - N/A   Clear
11:56 PM 51.1 °F 46.9 °F 86% 30.11 in 10.0 mi NW 4.6 mph - N/A   Clear